Time,TemperatureF,DewpointF,PressureIn,WindDirection,WindDirectionDegrees,WindSpeedMPH,WindSpeedGustMPH,Humidity,HourlyPrecipIn,Conditions,Clouds,dailyrainin,SoftwareType,DateUTC
2013-09-02 00:04:00,78.6,57.9,29.90,SSW,202,6.0,8.7,49,0.00,,,0.00,WUHU21623XXSP,2013-09-02 07:04:00,
2013-09-02 00:09:00,78.6,57.9,29.90,SSW,202,9.2,9.2,49,0.00,,,0.00,WUHU21623XXSP,2013-09-02 07:09:00,
2013-09-02 00:14:00,78.6,57.9,29.91,South,180,11.4,12.8,49,0.00,,,0.00,WUHU21623XXSP,2013-09-02 07:14:00,
2013-09-02 00:19:00,78.6,57.9,29.91,South,180,5.4,12.8,49,0.00,,,0.00,WUHU21623XXSP,2013-09-02 07:19:00,
2013-09-02 00:24:00,78.6,57.9,29.91,SSW,202,8.9,11.4,49,0.00,,,0.00,WUHU21623XXSP,2013-09-02 07:24:00,
2013-09-02 00:29:00,78.4,57.7,29.91,South,180,3.8,8.9,49,0.00,,,0.00,WUHU21623XXSP,2013-09-02 07:29:00,
2013-09-02 00:34:00,78.4,57.7,29.91,South,180,10.5,10.5,49,0.00,,,0.00,WUHU21623XXSP,2013-09-02 07:34:00,
2013-09-02 00:39:00,78.4,57.7,29.90,South,180,11.2,11.2,49,0.00,,,0.00,WUHU21623XXSP,2013-09-02 07:39:00,
2013-09-02 00:44:00,78.3,57.5,29.91,South,180,3.4,11.2,49,0.00,,,0.00,WUHU21623XXSP,2013-09-02 07:44:00,
2013-09-02 00:49:00,78.3,57.5,29.91,SSW,202,7.2,7.2,49,0.00,,,0.00,WUHU21623XXSP,2013-09-02 07:49:00,
2013-09-02 00:54:00,78.1,57.4,29.90,South,180,6.3,7.2,49,0.00,,,0.00,WUHU21623XXSP,2013-09-02 07:54:00,
2013-09-02 00:59:00,78.1,57.4,29.90,South,180,2.0,9.2,49,0.00,,,0.00,WUHU21623XXSP,2013-09-02 07:59:00,
2013-09-02 01:04:00,78.1,57.4,29.91,South,180,9.2,9.2,49,0.00,,,0.00,WUHU21623XXSP,2013-09-02 08:04:00,
2013-09-02 01:09:00,77.9,57.2,29.90,South,180,2.9,9.2,49,0.00,,,0.00,WUHU21623XXSP,2013-09-02 08:09:00,
2013-09-02 01:14:00,77.9,57.8,29.90,South,180,11.6,11.6,50,0.00,,,0.00,WUHU21623XXSP,2013-09-02 08:14:00,
2013-09-02 01:19:00,77.7,57.7,29.90,South,180,6.3,11.6,50,0.00,,,0.00,WUHU21623XXSP,2013-09-02 08:19:00,
2013-09-02 01:24:00,77.7,57.7,29.90,South,180,2.7,6.3,50,0.00,,,0.00,WUHU21623XXSP,2013-09-02 08:24:00,
2013-09-02 01:29:00,77.5,57.5,29.90,South,180,4.9,5.6,50,0.00,,,0.00,WUHU21623XXSP,2013-09-02 08:29:00,
2013-09-02 01:34:00,77.7,57.7,29.90,South,180,4.3,5.4,50,0.00,,,0.00,WUHU21623XXSP,2013-09-02 08:34:00,
2013-09-02 01:39:00,77.5,57.5,29.90,South,180,2.2,4.9,50,0.00,,,0.00,WUHU21623XXSP,2013-09-02 08:39:00,
2013-09-02 01:45:00,77.5,57.5,29.90,South,180,7.8,7.8,50,0.00,,,0.00,WUHU21623XXSP,2013-09-02 08:45:00,
2013-09-02 01:50:00,77.5,57.5,29.90,South,180,3.6,11.4,50,0.00,,,0.00,WUHU21623XXSP,2013-09-02 08:50:00,
2013-09-02 01:56:00,77.4,57.3,29.90,South,180,0.0,11.4,50,0.00,,,0.00,WUHU21623XXSP,2013-09-02 08:56:00,
2013-09-02 02:01:00,77.2,57.2,29.89,South,180,0.0,5.8,50,0.00,,,0.00,WUHU21623XXSP,2013-09-02 09:01:00,
2013-09-02 02:06:00,77.2,57.2,29.89,South,180,10.5,10.5,50,0.00,,,0.00,WUHU21623XXSP,2013-09-02 09:06:00,
2013-09-02 02:11:00,76.8,57.4,29.89,South,180,2.5,10.5,51,0.00,,,0.00,WUHU21623XXSP,2013-09-02 09:11:00,
2013-09-02 02:17:00,76.8,57.4,29.89,South,180,0.0,2.5,51,0.00,,,0.00,WUHU21623XXSP,2013-09-02 09:17:00,
2013-09-02 02:22:00,76.8,57.4,29.89,South,180,0.0,6.9,51,0.00,,,0.00,WUHU21623XXSP,2013-09-02 09:22:00,
2013-09-02 02:27:00,76.8,56.9,29.89,South,180,8.3,8.3,50,0.00,,,0.00,WUHU21623XXSP,2013-09-02 09:27:00,
2013-09-02 02:32:00,76.8,56.9,29.89,South,180,11.0,11.0,50,0.00,,,0.00,WUHU21623XXSP,2013-09-02 09:32:00,
2013-09-02 02:37:00,76.8,56.9,29.89,SSE,157,5.8,11.0,50,0.00,,,0.00,WUHU21623XXSP,2013-09-02 09:37:00,
2013-09-02 02:42:00,76.8,56.9,29.90,SSE,157,0.4,14.5,50,0.00,,,0.00,WUHU21623XXSP,2013-09-02 09:42:00,
2013-09-02 02:48:00,76.8,56.9,29.89,SSE,157,2.0,14.5,50,0.00,,,0.00,WUHU21623XXSP,2013-09-02 09:48:00,
2013-09-02 02:53:00,76.8,56.9,29.89,South,180,3.8,6.0,50,0.00,,,0.00,WUHU21623XXSP,2013-09-02 09:53:00,
2013-09-02 02:58:00,77.0,56.4,29.89,SSW,202,10.7,10.7,49,0.00,,,0.00,WUHU21623XXSP,2013-09-02 09:58:00,
2013-09-02 03:03:00,77.0,55.8,29.89,South,180,6.0,10.7,48,0.00,,,0.00,WUHU21623XXSP,2013-09-02 10:03:00,
2013-09-02 03:08:00,77.2,56.6,29.89,South,180,16.8,16.8,49,0.00,,,0.00,WUHU21623XXSP,2013-09-02 10:08:00,
2013-09-02 03:13:00,77.2,56.0,29.89,South,180,4.9,16.8,48,0.00,,,0.00,WUHU21623XXSP,2013-09-02 10:13:00,
2013-09-02 03:19:00,76.8,55.6,29.89,South,180,9.4,12.8,48,0.00,,,0.00,WUHU21623XXSP,2013-09-02 10:19:00,
2013-09-02 03:24:00,76.8,55.6,29.89,South,180,5.4,12.8,48,0.00,,,0.00,WUHU21623XXSP,2013-09-02 10:24:00,
2013-09-02 03:29:00,76.8,55.6,29.89,South,180,0.0,5.4,48,0.00,,,0.00,WUHU21623XXSP,2013-09-02 10:29:00,
2013-09-02 03:34:00,76.8,55.6,29.89,South,180,6.9,6.9,48,0.00,,,0.00,WUHU21623XXSP,2013-09-02 10:34:00,
2013-09-02 03:39:00,76.8,55.6,29.90,South,180,10.7,10.7,48,0.00,,,0.00,WUHU21623XXSP,2013-09-02 10:39:00,
2013-09-02 03:44:00,76.8,55.6,29.90,South,180,3.6,10.7,48,0.00,,,0.00,WUHU21623XXSP,2013-09-02 10:44:00,
2013-09-02 03:49:00,76.8,55.6,29.89,South,180,10.1,10.1,48,0.00,,,0.00,WUHU21623XXSP,2013-09-02 10:49:00,
2013-09-02 03:54:00,76.8,55.6,29.90,South,180,0.9,10.1,48,0.00,,,0.00,WUHU21623XXSP,2013-09-02 10:54:00,
2013-09-02 03:59:00,76.8,55.6,29.90,South,180,5.1,6.0,48,0.00,,,0.00,WUHU21623XXSP,2013-09-02 10:59:00,
2013-09-02 04:05:00,76.8,55.6,29.90,South,180,5.1,5.1,48,0.00,,,0.00,WUHU21623XXSP,2013-09-02 11:05:00,
2013-09-02 04:10:00,76.6,55.5,29.89,South,180,0.0,5.1,48,0.00,,,0.00,WUHU21623XXSP,2013-09-02 11:10:00,
2013-09-02 04:15:00,76.3,55.1,29.89,South,180,0.0,6.7,48,0.00,,,0.00,WUHU21623XXSP,2013-09-02 11:15:00,
2013-09-02 04:20:00,76.3,55.1,29.89,South,180,11.2,11.2,48,0.00,,,0.00,WUHU21623XXSP,2013-09-02 11:20:00,
2013-09-02 04:25:00,76.3,55.1,29.89,South,180,0.0,11.2,48,0.00,,,0.00,WUHU21623XXSP,2013-09-02 11:25:00,
2013-09-02 04:30:00,76.3,54.5,29.90,South,180,12.8,16.3,47,0.00,,,0.00,WUHU21623XXSP,2013-09-02 11:30:00,
2013-09-02 04:35:00,76.1,54.4,29.89,South,180,6.0,16.3,47,0.00,,,0.00,WUHU21623XXSP,2013-09-02 11:35:00,
2013-09-02 04:40:00,76.1,54.4,29.89,South,180,2.9,6.0,47,0.00,,,0.00,WUHU21623XXSP,2013-09-02 11:40:00,
2013-09-02 04:45:00,76.3,54.5,29.89,South,180,2.0,2.9,47,0.00,,,0.00,WUHU21623XXSP,2013-09-02 11:45:00,
2013-09-02 04:50:00,76.3,54.5,29.89,South,180,3.6,3.6,47,0.00,,,0.00,WUHU21623XXSP,2013-09-02 11:50:00,
2013-09-02 04:55:00,76.3,53.9,29.89,South,180,0.0,3.6,46,0.00,,,0.00,WUHU21623XXSP,2013-09-02 11:55:00,
2013-09-02 05:00:00,76.1,54.4,29.89,South,180,3.4,6.9,47,0.00,,,0.00,WUHU21623XXSP,2013-09-02 12:00:00,
2013-09-02 05:05:00,75.9,54.2,29.89,South,180,4.5,6.9,47,0.00,,,0.00,WUHU21623XXSP,2013-09-02 12:05:00,
2013-09-02 05:10:00,75.9,54.2,29.89,South,180,4.9,4.9,47,0.00,,,0.00,WUHU21623XXSP,2013-09-02 12:10:00,
2013-09-02 05:15:00,75.7,54.0,29.89,South,180,3.4,4.9,47,0.00,,,0.00,WUHU21623XXSP,2013-09-02 12:15:00,
2013-09-02 05:20:00,75.6,53.9,29.89,South,180,1.6,3.6,47,0.00,,,0.00,WUHU21623XXSP,2013-09-02 12:20:00,
2013-09-02 05:25:00,75.6,53.9,29.89,South,180,0.4,2.0,47,0.00,,,0.00,WUHU21623XXSP,2013-09-02 12:25:00,
2013-09-02 05:30:00,75.4,54.3,29.89,South,180,2.0,5.6,48,0.00,,,0.00,WUHU21623XXSP,2013-09-02 12:30:00,
2013-09-02 05:35:00,75.4,54.3,29.89,South,180,0.0,5.6,48,0.00,,,0.00,WUHU21623XXSP,2013-09-02 12:35:00,
2013-09-02 05:40:00,75.0,54.0,29.89,South,180,0.0,1.1,48,0.00,,,0.00,WUHU21623XXSP,2013-09-02 12:40:00,
2013-09-02 05:45:00,75.0,54.0,29.89,South,180,0.0,1.1,48,0.00,,,0.00,WUHU21623XXSP,2013-09-02 12:45:00,
2013-09-02 05:50:00,74.8,54.4,29.89,South,180,0.0,0.0,49,0.00,,,0.00,WUHU21623XXSP,2013-09-02 12:50:00,
2013-09-02 05:55:00,74.8,54.4,29.90,South,180,0.0,0.0,49,0.00,,,0.00,WUHU21623XXSP,2013-09-02 12:55:00,
2013-09-02 06:00:00,74.3,53.9,29.89,South,180,12.8,14.5,49,0.00,,,0.00,WUHU21623XXSP,2013-09-02 13:00:00,
2013-09-02 06:05:00,74.1,54.3,29.90,South,180,0.0,14.5,50,0.00,,,0.00,WUHU21623XXSP,2013-09-02 13:05:00,
2013-09-02 06:11:00,73.9,54.6,29.90,South,180,0.0,0.0,51,0.00,,,0.00,WUHU21623XXSP,2013-09-02 13:11:00,
2013-09-02 06:16:00,73.8,54.5,29.90,South,180,0.0,0.0,51,0.00,,,0.00,WUHU21623XXSP,2013-09-02 13:16:00,
2013-09-02 06:21:00,73.8,55.0,29.90,South,180,0.0,0.0,52,0.00,,,0.00,WUHU21623XXSP,2013-09-02 13:21:00,
2013-09-02 06:26:00,73.6,54.8,29.90,South,180,11.0,12.1,52,0.00,,,0.00,WUHU21623XXSP,2013-09-02 13:26:00,
2013-09-02 06:31:00,73.6,55.3,29.91,South,180,8.9,12.1,53,0.00,,,0.00,WUHU21623XXSP,2013-09-02 13:31:00,
2013-09-02 06:36:00,73.6,55.3,29.91,South,180,0.0,8.9,53,0.00,,,0.00,WUHU21623XXSP,2013-09-02 13:36:00,
2013-09-02 06:41:00,73.2,54.4,29.91,South,180,12.3,12.8,52,0.00,,,0.00,WUHU21623XXSP,2013-09-02 13:41:00,
2013-09-02 06:46:00,73.2,54.4,29.91,South,180,0.0,12.8,52,0.00,,,0.00,WUHU21623XXSP,2013-09-02 13:46:00,
2013-09-02 06:51:00,73.6,55.3,29.91,South,180,0.0,0.0,53,0.00,,,0.00,WUHU21623XXSP,2013-09-02 13:51:00,
2013-09-02 06:56:00,73.9,55.7,29.91,South,180,0.0,0.0,53,0.00,,,0.00,WUHU21623XXSP,2013-09-02 13:56:00,
2013-09-02 07:01:00,73.8,55.0,29.92,South,180,0.0,0.0,52,0.00,,,0.00,WUHU21623XXSP,2013-09-02 14:01:00,
2013-09-02 07:06:00,73.8,55.0,29.92,South,180,0.0,0.0,52,0.00,,,0.00,WUHU21623XXSP,2013-09-02 14:06:00,
2013-09-02 07:11:00,73.9,55.1,29.93,South,180,0.0,0.0,52,0.00,,,0.00,WUHU21623XXSP,2013-09-02 14:11:00,
2013-09-02 07:16:00,73.9,55.1,29.93,South,180,0.0,0.0,52,0.00,,,0.00,WUHU21623XXSP,2013-09-02 14:16:00,
2013-09-02 07:21:00,73.9,55.1,29.93,South,180,10.5,10.5,52,0.00,,,0.00,WUHU21623XXSP,2013-09-02 14:21:00,
2013-09-02 07:26:00,74.1,55.8,29.93,South,180,0.0,10.5,53,0.00,,,0.00,WUHU21623XXSP,2013-09-02 14:26:00,
2013-09-02 07:31:00,74.1,55.8,29.94,South,180,0.0,0.0,53,0.00,,,0.00,WUHU21623XXSP,2013-09-02 14:31:00,
2013-09-02 07:36:00,74.5,55.7,29.94,South,180,0.0,0.0,52,0.00,,,0.00,WUHU21623XXSP,2013-09-02 14:36:00,
2013-09-02 07:41:00,74.8,56.0,29.94,South,180,0.0,15.7,52,0.00,,,0.00,WUHU21623XXSP,2013-09-02 14:41:00,
2013-09-02 07:46:00,75.4,56.6,29.94,South,180,15.9,15.9,52,0.00,,,0.00,WUHU21623XXSP,2013-09-02 14:46:00,
2013-09-02 07:51:00,75.9,56.6,29.94,South,180,0.0,15.9,51,0.00,,,0.00,WUHU21623XXSP,2013-09-02 14:51:00,
2013-09-02 07:56:00,76.1,56.2,29.95,South,180,0.0,16.3,50,0.00,,,0.00,WUHU21623XXSP,2013-09-02 14:56:00,
2013-09-02 08:01:00,76.3,56.4,29.95,South,180,17.0,17.0,50,0.00,,,0.00,WUHU21623XXSP,2013-09-02 15:01:00,
2013-09-02 08:07:00,76.6,56.7,29.94,South,180,12.1,17.0,50,0.00,,,0.00,WUHU21623XXSP,2013-09-02 15:07:00,
2013-09-02 08:12:00,76.6,56.1,29.94,South,180,16.8,22.1,49,0.00,,,0.00,WUHU21623XXSP,2013-09-02 15:12:00,
2013-09-02 08:17:00,77.0,56.4,29.95,South,180,0.0,22.1,49,0.00,,,0.00,WUHU21623XXSP,2013-09-02 15:17:00,
2013-09-02 08:22:00,77.5,56.9,29.95,South,180,15.0,15.0,49,0.00,,,0.00,WUHU21623XXSP,2013-09-02 15:22:00,
2013-09-02 08:27:00,78.1,56.8,29.95,South,180,21.9,24.4,48,0.00,,,0.00,WUHU21623XXSP,2013-09-02 15:27:00,
2013-09-02 08:32:00,79.0,57.0,29.95,South,180,0.0,24.4,47,0.00,,,0.00,WUHU21623XXSP,2013-09-02 15:32:00,
2013-09-02 08:37:00,79.5,56.8,29.95,South,180,0.0,19.5,46,0.00,,,0.00,WUHU21623XXSP,2013-09-02 15:37:00,
2013-09-02 08:42:00,80.4,57.0,29.95,South,180,14.3,14.3,45,0.00,,,0.00,WUHU21623XXSP,2013-09-02 15:42:00,
2013-09-02 08:47:00,82.2,56.8,29.95,South,180,18.8,20.8,42,0.00,,,0.00,WUHU21623XXSP,2013-09-02 15:47:00,
2013-09-02 08:52:00,83.5,57.3,29.95,South,180,17.7,20.8,41,0.00,,,0.00,WUHU21623XXSP,2013-09-02 15:52:00,
2013-09-02 08:57:00,84.4,57.5,29.95,South,180,9.8,22.8,40,0.00,,,0.00,WUHU21623XXSP,2013-09-02 15:57:00,
2013-09-02 09:03:00,85.6,57.1,29.95,South,180,18.1,25.5,38,0.00,,,0.00,WUHU21623XXSP,2013-09-02 16:03:00,
2013-09-02 09:08:00,86.5,57.1,29.95,South,180,1.6,25.5,37,0.00,,,0.00,WUHU21623XXSP,2013-09-02 16:08:00,
2013-09-02 09:14:00,87.4,57.1,29.96,South,180,6.9,15.0,36,0.00,,,0.00,WUHU21623XXSP,2013-09-02 16:14:00,
2013-09-02 09:19:00,88.3,57.0,29.95,SSE,157,1.6,15.0,35,0.00,,,0.00,WUHU21623XXSP,2013-09-02 16:19:00,
2013-09-02 09:24:00,88.5,57.2,29.95,SSE,157,12.8,18.3,35,0.00,,,0.00,WUHU21623XXSP,2013-09-02 16:24:00,
2013-09-02 09:29:00,89.2,57.0,29.95,SSE,157,5.6,27.7,34,0.00,,,0.00,WUHU21623XXSP,2013-09-02 16:29:00,
2013-09-02 09:34:00,88.9,56.7,29.95,South,180,1.3,27.7,34,0.00,,,0.00,WUHU21623XXSP,2013-09-02 16:34:00,
2013-09-02 09:39:00,89.4,56.4,29.95,South,180,18.8,18.8,33,0.00,,,0.00,WUHU21623XXSP,2013-09-02 16:39:00,
2013-09-02 09:44:00,90.3,56.4,29.95,South,180,18.6,18.8,32,0.00,,,0.00,WUHU21623XXSP,2013-09-02 16:44:00,
2013-09-02 09:49:00,91.2,57.2,29.95,South,180,19.9,19.9,32,0.00,,,0.00,WUHU21623XXSP,2013-09-02 16:49:00,
2013-09-02 09:54:00,91.6,56.7,29.95,South,180,3.1,19.9,31,0.00,,,0.00,WUHU21623XXSP,2013-09-02 16:54:00,
2013-09-02 09:59:00,91.6,56.7,29.95,SSE,157,3.4,8.1,31,0.00,,,0.00,WUHU21623XXSP,2013-09-02 16:59:00,
2013-09-02 10:04:00,91.9,56.2,29.95,SSE,157,20.6,20.6,30,0.00,,,0.00,WUHU21623XXSP,2013-09-02 17:04:00,
2013-09-02 10:09:00,92.5,54.4,29.95,SSE,157,3.1,20.6,28,0.00,,,0.00,WUHU21623XXSP,2013-09-02 17:09:00,
2013-09-02 10:14:00,93.0,54.9,29.95,SSE,157,5.4,11.9,28,0.00,,,0.00,WUHU21623XXSP,2013-09-02 17:14:00,
2013-09-02 10:19:00,92.8,54.7,29.94,South,180,0.9,11.9,28,0.00,,,0.00,WUHU21623XXSP,2013-09-02 17:19:00,
2013-09-02 10:24:00,92.8,53.6,29.94,South,180,7.6,8.7,27,0.00,,,0.00,WUHU21623XXSP,2013-09-02 17:24:00,
2013-09-02 10:29:00,92.8,54.7,29.94,SSE,157,20.8,24.6,28,0.00,,,0.00,WUHU21623XXSP,2013-09-02 17:29:00,
2013-09-02 10:34:00,93.6,53.1,29.94,SSE,157,9.8,24.6,26,0.00,,,0.00,WUHU21623XXSP,2013-09-02 17:34:00,
2013-09-02 10:39:00,93.9,53.4,29.94,SE,135,15.4,15.4,26,0.00,,,0.00,WUHU21623XXSP,2013-09-02 17:39:00,
2013-09-02 10:44:00,93.7,52.2,29.93,ENE,67,1.1,15.4,25,0.00,,,0.00,WUHU21623XXSP,2013-09-02 17:44:00,
2013-09-02 10:49:00,94.6,51.8,29.93,SSE,157,4.5,7.2,24,0.00,,,0.00,WUHU21623XXSP,2013-09-02 17:49:00,
2013-09-02 10:55:00,95.2,51.2,29.92,South,180,7.4,7.4,23,0.00,,,0.00,WUHU21623XXSP,2013-09-02 17:55:00,
2013-09-02 11:00:00,95.7,51.6,29.93,SSE,157,3.4,9.2,23,0.00,,,0.00,WUHU21623XXSP,2013-09-02 18:00:00,
2013-09-02 11:05:00,95.7,51.6,29.92,South,180,6.5,23.5,23,0.00,,,0.00,WUHU21623XXSP,2013-09-02 18:05:00,
2013-09-02 11:10:00,95.4,51.3,29.92,SSE,157,2.9,23.5,23,0.00,,,0.00,WUHU21623XXSP,2013-09-02 18:10:00,
2013-09-02 11:15:00,96.3,52.1,29.92,East,90,20.6,20.6,23,0.00,,,0.00,WUHU21623XXSP,2013-09-02 18:15:00,
2013-09-02 11:20:00,96.1,50.8,29.91,SW,225,7.6,20.6,22,0.00,,,0.00,WUHU21623XXSP,2013-09-02 18:20:00,
2013-09-02 11:25:00,96.1,51.9,29.92,SSE,157,1.3,8.3,23,0.00,,,0.00,WUHU21623XXSP,2013-09-02 18:25:00,
2013-09-02 11:30:00,96.6,50.2,29.91,SSE,157,13.6,17.7,21,0.00,,,0.00,WUHU21623XXSP,2013-09-02 18:30:00,
2013-09-02 11:36:00,97.2,49.6,29.91,SSE,157,19.0,19.0,20,0.00,,,0.00,WUHU21623XXSP,2013-09-02 18:36:00,
2013-09-02 11:41:00,96.6,49.1,29.92,SSW,202,0.0,19.0,20,0.00,,,0.00,WUHU21623XXSP,2013-09-02 18:41:00,
2013-09-02 11:46:00,97.0,49.4,29.91,SSE,157,12.1,12.1,20,0.00,,,0.00,WUHU21623XXSP,2013-09-02 18:46:00,
2013-09-02 11:51:00,97.3,49.7,29.91,South,180,12.5,12.5,20,0.00,,,0.00,WUHU21623XXSP,2013-09-02 18:51:00,
2013-09-02 11:56:00,97.5,49.9,29.91,SW,225,3.4,12.5,20,0.00,,,0.00,WUHU21623XXSP,2013-09-02 18:56:00,
2013-09-02 12:02:00,98.2,50.4,29.91,SSE,157,0.0,6.9,20,0.00,,,0.00,WUHU21623XXSP,2013-09-02 19:02:00,
2013-09-02 12:07:00,98.2,50.4,29.91,South,180,0.0,10.1,20,0.00,,,0.00,WUHU21623XXSP,2013-09-02 19:07:00,
2013-09-02 12:12:00,98.4,49.1,29.91,SE,135,0.9,10.1,19,0.00,,,0.00,WUHU21623XXSP,2013-09-02 19:12:00,
2013-09-02 12:17:00,99.1,49.6,29.91,ESE,112,1.1,5.8,19,0.00,,,0.00,WUHU21623XXSP,2013-09-02 19:17:00,
2013-09-02 12:22:00,99.1,49.6,29.91,SSE,157,5.6,5.6,19,0.00,,,0.00,WUHU21623XXSP,2013-09-02 19:22:00,
2013-09-02 12:28:00,99.3,49.8,29.91,SSE,157,0.0,5.6,19,0.00,,,0.00,WUHU21623XXSP,2013-09-02 19:28:00,
2013-09-02 12:33:00,99.3,49.8,29.91,South,180,3.1,5.1,19,0.00,,,0.00,WUHU21623XXSP,2013-09-02 19:33:00,
2013-09-02 12:38:00,99.7,50.1,29.90,ESE,112,9.8,9.8,19,0.00,,,0.00,WUHU21623XXSP,2013-09-02 19:38:00,
2013-09-02 12:43:00,100.0,48.3,29.90,SSE,157,3.8,9.8,18,0.00,,,0.00,WUHU21623XXSP,2013-09-02 19:43:00,
2013-09-02 12:48:00,99.5,47.8,29.90,South,180,6.3,11.2,18,0.00,,,0.00,WUHU21623XXSP,2013-09-02 19:48:00,
2013-09-02 12:53:00,99.5,47.8,29.90,SSW,202,6.0,11.2,18,0.00,,,0.00,WUHU21623XXSP,2013-09-02 19:53:00,
2013-09-02 12:58:00,100.2,48.4,29.89,SSE,157,5.1,6.0,18,0.00,,,0.00,WUHU21623XXSP,2013-09-02 19:58:00,
2013-09-02 13:03:00,100.4,48.6,29.89,SSE,157,0.0,13.9,18,0.00,,,0.00,WUHU21623XXSP,2013-09-02 20:03:00,
2013-09-02 13:08:00,100.2,46.6,29.89,WSW,247,5.4,13.9,17,0.00,,,0.00,WUHU21623XXSP,2013-09-02 20:08:00,
2013-09-02 13:13:00,100.8,48.8,29.89,SSE,157,0.0,5.4,18,0.00,,,0.00,WUHU21623XXSP,2013-09-02 20:13:00,
2013-09-02 13:18:00,100.6,48.7,29.89,SE,135,0.2,5.4,18,0.00,,,0.00,WUHU21623XXSP,2013-09-02 20:18:00,
2013-09-02 13:23:00,101.1,49.1,29.89,South,180,2.2,5.4,18,0.00,,,0.00,WUHU21623XXSP,2013-09-02 20:23:00,
2013-09-02 13:28:00,101.3,49.3,29.88,SE,135,5.4,5.4,18,0.00,,,0.00,WUHU21623XXSP,2013-09-02 20:28:00,
2013-09-02 13:33:00,101.7,47.7,29.88,SSW,202,7.6,7.6,17,0.00,,,0.00,WUHU21623XXSP,2013-09-02 20:33:00,
2013-09-02 13:39:00,101.1,47.3,29.88,SSE,157,4.7,17.9,17,0.00,,,0.00,WUHU21623XXSP,2013-09-02 20:39:00,
2013-09-02 13:44:00,100.6,48.7,29.88,SE,135,6.3,17.9,18,0.00,,,0.00,WUHU21623XXSP,2013-09-02 20:44:00,
2013-09-02 13:49:00,100.6,48.7,29.88,SE,135,0.0,12.3,18,0.00,,,0.00,WUHU21623XXSP,2013-09-02 20:49:00,
2013-09-02 13:54:00,101.3,49.3,29.88,South,180,7.6,14.1,18,0.00,,,0.00,WUHU21623XXSP,2013-09-02 20:54:00,
2013-09-02 13:59:00,101.5,49.4,29.88,SE,135,1.8,14.1,18,0.00,,,0.00,WUHU21623XXSP,2013-09-02 20:59:00,
2013-09-02 14:04:00,101.8,49.7,29.88,SSW,202,6.5,7.6,18,0.00,,,0.00,WUHU21623XXSP,2013-09-02 21:04:00,
2013-09-02 14:09:00,101.5,49.4,29.87,SE,135,15.0,15.0,18,0.00,,,0.00,WUHU21623XXSP,2013-09-02 21:09:00,
2013-09-02 14:14:00,101.7,49.5,29.88,SSE,157,2.0,15.0,18,0.00,,,0.00,WUHU21623XXSP,2013-09-02 21:14:00,
2013-09-02 14:20:00,101.5,49.4,29.87,SSW,202,9.8,12.3,18,0.00,,,0.00,WUHU21623XXSP,2013-09-02 21:20:00,
2013-09-02 14:25:00,101.7,47.7,29.87,South,180,14.1,17.4,17,0.00,,,0.00,WUHU21623XXSP,2013-09-02 21:25:00,
2013-09-02 14:30:00,101.3,49.3,29.87,SSE,157,5.4,17.4,18,0.00,,,0.00,WUHU21623XXSP,2013-09-02 21:30:00,
2013-09-02 14:36:00,101.1,47.3,29.87,South,180,18.3,18.6,17,0.00,,,0.00,WUHU21623XXSP,2013-09-02 21:36:00,
2013-09-02 14:41:00,100.9,49.0,29.86,South,180,12.8,18.6,18,0.00,,,0.00,WUHU21623XXSP,2013-09-02 21:41:00,
2013-09-02 14:46:00,100.9,49.0,29.86,SE,135,5.4,13.6,18,0.00,,,0.00,WUHU21623XXSP,2013-09-02 21:46:00,
2013-09-02 14:51:00,100.8,48.8,29.86,SSE,157,2.9,11.4,18,0.00,,,0.00,WUHU21623XXSP,2013-09-02 21:51:00,
2013-09-02 14:56:00,101.1,49.1,29.86,SSE,157,0.0,3.8,18,0.00,,,0.00,WUHU21623XXSP,2013-09-02 21:56:00,
2013-09-02 15:01:00,101.3,49.3,29.85,South,180,6.9,6.9,18,0.00,,,0.00,WUHU21623XXSP,2013-09-02 22:01:00,
2013-09-02 15:06:00,101.3,49.3,29.85,SSE,157,5.6,10.1,18,0.00,,,0.00,WUHU21623XXSP,2013-09-02 22:06:00,
2013-09-02 15:11:00,100.9,49.0,29.85,South,180,12.5,17.7,18,0.00,,,0.00,WUHU21623XXSP,2013-09-02 22:11:00,
2013-09-02 15:16:00,101.3,49.3,29.84,South,180,11.0,17.7,18,0.00,,,0.00,WUHU21623XXSP,2013-09-02 22:16:00,
2013-09-02 15:21:00,101.3,49.3,29.84,SSW,202,18.6,18.6,18,0.00,,,0.00,WUHU21623XXSP,2013-09-02 22:21:00,
2013-09-02 15:26:00,100.9,51.1,29.84,SE,135,0.0,18.6,19,0.00,,,0.00,WUHU21623XXSP,2013-09-02 22:26:00,
2013-09-02 15:32:00,100.2,50.5,29.84,SSE,157,7.8,10.1,19,0.00,,,0.00,WUHU21623XXSP,2013-09-02 22:32:00,
2013-09-02 15:37:00,100.9,51.1,29.84,South,180,13.9,15.9,19,0.00,,,0.00,WUHU21623XXSP,2013-09-02 22:37:00,
2013-09-02 15:42:00,101.5,51.6,29.85,South,180,0.0,15.9,19,0.00,,,0.00,WUHU21623XXSP,2013-09-02 22:42:00,
2013-09-02 15:47:00,101.5,49.4,29.84,SSE,157,0.0,6.0,18,0.00,,,0.00,WUHU21623XXSP,2013-09-02 22:47:00,
2013-09-02 15:53:00,101.5,49.4,29.84,SSW,202,13.2,13.2,18,0.00,,,0.00,WUHU21623XXSP,2013-09-02 22:53:00,
2013-09-02 15:58:00,100.9,51.1,29.84,WSW,247,10.7,13.2,19,0.00,,,0.00,WUHU21623XXSP,2013-09-02 22:58:00,
2013-09-02 16:03:00,100.8,51.0,29.84,South,180,8.7,10.7,19,0.00,,,0.00,WUHU21623XXSP,2013-09-02 23:03:00,
2013-09-02 16:08:00,99.9,50.3,29.83,SSW,202,1.3,8.9,19,0.00,,,0.00,WUHU21623XXSP,2013-09-02 23:08:00,
2013-09-02 16:13:00,99.3,49.8,29.83,SSW,202,14.5,14.5,19,0.00,,,0.00,WUHU21623XXSP,2013-09-02 23:13:00,
2013-09-02 16:18:00,98.4,50.6,29.84,South,180,3.6,14.5,20,0.00,,,0.00,WUHU21623XXSP,2013-09-02 23:18:00,
2013-09-02 16:23:00,98.2,50.4,29.83,SSW,202,21.7,21.7,20,0.00,,,0.00,WUHU21623XXSP,2013-09-02 23:23:00,
2013-09-02 16:28:00,97.9,50.1,29.83,SSW,202,10.3,21.7,20,0.00,,,0.00,WUHU21623XXSP,2013-09-02 23:28:00,
2013-09-02 16:33:00,97.7,50.0,29.83,South,180,3.4,11.0,20,0.00,,,0.00,WUHU21623XXSP,2013-09-02 23:33:00,
2013-09-02 16:38:00,97.7,50.0,29.83,South,180,10.3,21.5,20,0.00,,,0.00,WUHU21623XXSP,2013-09-02 23:38:00,
2013-09-02 16:43:00,97.5,49.9,29.83,SSW,202,8.5,21.5,20,0.00,,,0.00,WUHU21623XXSP,2013-09-02 23:43:00,
2013-09-02 16:48:00,97.2,49.7,29.83,SSW,202,13.9,15.2,20,0.00,,,0.00,WUHU21623XXSP,2013-09-02 23:48:00,
2013-09-02 16:53:00,96.8,49.3,29.83,SSE,157,5.1,16.6,20,0.00,,,0.00,WUHU21623XXSP,2013-09-02 23:53:00,
2013-09-02 16:58:00,96.6,50.2,29.83,South,180,2.2,16.6,21,0.00,,,0.00,WUHU21623XXSP,2013-09-02 23:58:00,
2013-09-02 17:03:00,96.6,50.2,29.83,South,180,2.7,7.2,21,0.00,,,0.00,WUHU21623XXSP,2013-09-03 00:03:00,
2013-09-02 17:09:00,97.3,49.7,29.83,South,180,10.3,10.3,20,0.00,,,0.00,WUHU21623XXSP,2013-09-03 00:09:00,
2013-09-02 17:14:00,97.5,49.9,29.83,SSW,202,14.5,14.5,20,0.00,,,0.00,WUHU21623XXSP,2013-09-03 00:14:00,
2013-09-02 17:19:00,97.0,49.4,29.83,South,180,11.4,18.1,20,0.00,,,0.00,WUHU21623XXSP,2013-09-03 00:19:00,
2013-09-02 17:24:00,96.8,49.3,29.83,South,180,24.2,24.6,20,0.00,,,0.00,WUHU21623XXSP,2013-09-03 00:24:00,
2013-09-02 17:29:00,96.4,49.0,29.84,SSW,202,11.9,24.6,20,0.00,,,0.00,WUHU21623XXSP,2013-09-03 00:29:00,
2013-09-02 17:34:00,96.3,48.8,29.84,SSW,202,13.9,17.4,20,0.00,,,0.00,WUHU21623XXSP,2013-09-03 00:34:00,
2013-09-02 17:39:00,95.7,48.3,29.85,South,180,15.4,15.4,20,0.00,,,0.00,WUHU21623XXSP,2013-09-03 00:39:00,
2013-09-02 17:44:00,95.7,48.3,29.84,SSW,202,19.2,19.2,20,0.00,,,0.00,WUHU21623XXSP,2013-09-03 00:44:00,
2013-09-02 17:49:00,95.4,48.0,29.84,South,180,8.1,19.2,20,0.00,,,0.00,WUHU21623XXSP,2013-09-03 00:49:00,
2013-09-02 17:54:00,94.8,47.5,29.84,SSW,202,10.5,13.9,20,0.00,,,0.00,WUHU21623XXSP,2013-09-03 00:54:00,
2013-09-02 17:59:00,94.5,47.2,29.84,SSW,202,10.3,16.3,20,0.00,,,0.00,WUHU21623XXSP,2013-09-03 00:59:00,
2013-09-02 18:04:00,94.5,47.2,29.84,SSW,202,13.9,16.3,20,0.00,,,0.00,WUHU21623XXSP,2013-09-03 01:04:00,
2013-09-02 18:09:00,94.3,47.1,29.84,SSW,202,17.0,17.0,20,0.00,,,0.00,WUHU21623XXSP,2013-09-03 01:09:00,
2013-09-02 18:14:00,93.9,47.9,29.83,SW,225,7.2,17.0,21,0.00,,,0.00,WUHU21623XXSP,2013-09-03 01:14:00,
2013-09-02 18:19:00,93.7,47.8,29.84,SSW,202,14.1,15.4,21,0.00,,,0.00,WUHU21623XXSP,2013-09-03 01:19:00,
2013-09-02 18:24:00,93.6,47.6,29.84,SSW,202,11.6,15.9,21,0.00,,,0.00,WUHU21623XXSP,2013-09-03 01:24:00,
2013-09-02 18:29:00,93.2,49.5,29.83,SSW,202,13.4,15.9,23,0.00,,,0.00,WUHU21623XXSP,2013-09-03 01:29:00,
2013-09-02 18:34:00,93.0,49.4,29.84,South,180,13.6,13.6,23,0.00,,,0.00,WUHU21623XXSP,2013-09-03 01:34:00,
2013-09-02 18:39:00,92.1,49.7,29.85,SSW,202,12.8,13.6,24,0.00,,,0.00,WUHU21623XXSP,2013-09-03 01:39:00,
2013-09-02 18:44:00,91.8,49.5,29.85,SW,225,13.2,13.2,24,0.00,,,0.00,WUHU21623XXSP,2013-09-03 01:44:00,
2013-09-02 18:49:00,91.6,49.3,29.85,SSW,202,9.2,13.2,24,0.00,,,0.00,WUHU21623XXSP,2013-09-03 01:49:00,
2013-09-02 18:54:00,90.9,50.9,29.85,SSW,202,11.9,12.5,26,0.00,,,0.00,WUHU21623XXSP,2013-09-03 01:54:00,
2013-09-02 18:59:00,90.5,50.6,29.85,SW,225,6.9,16.1,26,0.00,,,0.00,WUHU21623XXSP,2013-09-03 01:59:00,
2013-09-02 19:04:00,90.1,51.4,29.85,SW,225,12.3,16.1,27,0.00,,,0.00,WUHU21623XXSP,2013-09-03 02:04:00,
2013-09-02 19:09:00,89.8,51.0,29.85,SSW,202,9.8,12.3,27,0.00,,,0.00,WUHU21623XXSP,2013-09-03 02:09:00,
2013-09-02 19:14:00,89.4,51.8,29.85,SW,225,7.6,11.2,28,0.00,,,0.00,WUHU21623XXSP,2013-09-03 02:14:00,
2013-09-02 19:19:00,89.2,51.7,29.86,SSW,202,4.3,11.2,28,0.00,,,0.00,WUHU21623XXSP,2013-09-03 02:19:00,
2013-09-02 19:24:00,88.9,51.3,29.85,SSW,202,2.7,6.3,28,0.00,,,0.00,WUHU21623XXSP,2013-09-03 02:24:00,
2013-09-02 19:29:00,88.7,52.3,29.85,SSW,202,11.0,11.0,29,0.00,,,0.00,WUHU21623XXSP,2013-09-03 02:29:00,
2013-09-02 19:34:00,88.3,51.9,29.85,SSW,202,11.0,11.0,29,0.00,,,0.00,WUHU21623XXSP,2013-09-03 02:34:00,
2013-09-02 19:39:00,88.0,52.7,29.85,South,180,21.9,21.9,30,0.00,,,0.00,WUHU21623XXSP,2013-09-03 02:39:00,
2013-09-02 19:44:00,87.8,53.3,29.86,South,180,5.1,21.9,31,0.00,,,0.00,WUHU21623XXSP,2013-09-03 02:44:00,
2013-09-02 19:49:00,87.6,53.2,29.86,South,180,7.4,10.5,31,0.00,,,0.00,WUHU21623XXSP,2013-09-03 02:49:00,
2013-09-02 19:54:00,87.4,53.8,29.86,SSE,157,4.9,8.1,32,0.00,,,0.00,WUHU21623XXSP,2013-09-03 02:54:00,
2013-09-02 19:59:00,87.1,53.5,29.86,South,180,7.2,8.1,32,0.00,,,0.00,WUHU21623XXSP,2013-09-03 02:59:00,
2013-09-02 20:04:00,86.7,53.2,29.86,South,180,8.3,8.3,32,0.00,,,0.00,WUHU21623XXSP,2013-09-03 03:04:00,
2013-09-02 20:09:00,86.5,53.9,29.87,SSE,157,8.3,21.5,33,0.00,,,0.00,WUHU21623XXSP,2013-09-03 03:09:00,
2013-09-02 20:14:00,86.4,53.7,29.87,South,180,14.5,21.5,33,0.00,,,0.00,WUHU21623XXSP,2013-09-03 03:14:00,
2013-09-02 20:19:00,86.2,53.6,29.87,South,180,1.3,14.5,33,0.00,,,0.00,WUHU21623XXSP,2013-09-03 03:19:00,
2013-09-02 20:24:00,86.2,53.6,29.87,SSW,202,6.5,6.5,33,0.00,,,0.00,WUHU21623XXSP,2013-09-03 03:24:00,
2013-09-02 20:29:00,85.8,53.3,29.87,South,180,9.4,10.1,33,0.00,,,0.00,WUHU21623XXSP,2013-09-03 03:29:00,
2013-09-02 20:34:00,85.8,53.3,29.87,SSW,202,11.9,11.9,33,0.00,,,0.00,WUHU21623XXSP,2013-09-03 03:34:00,
2013-09-02 20:39:00,85.6,53.9,29.87,South,180,3.4,21.5,34,0.00,,,0.00,WUHU21623XXSP,2013-09-03 03:39:00,
2013-09-02 20:44:00,85.6,53.9,29.88,South,180,1.3,21.5,34,0.00,,,0.00,WUHU21623XXSP,2013-09-03 03:44:00,
2013-09-02 20:49:00,85.3,53.6,29.87,South,180,6.7,6.7,34,0.00,,,0.00,WUHU21623XXSP,2013-09-03 03:49:00,
2013-09-02 20:55:00,85.3,53.6,29.88,SSE,157,5.1,6.7,34,0.00,,,0.00,WUHU21623XXSP,2013-09-03 03:55:00,
2013-09-02 21:00:00,85.1,53.4,29.88,South,180,0.0,5.8,34,0.00,,,0.00,WUHU21623XXSP,2013-09-03 04:00:00,
2013-09-02 21:01:00,84.9,53.3,29.88,South,180,16.3,16.3,34,0.00,,,0.00,WUHU21623XXSP,2013-09-03 04:01:00,
2013-09-02 21:03:00,84.7,53.9,29.88,South,180,2.9,16.3,35,0.00,,,0.00,WUHU21623XXSP,2013-09-03 04:03:00,
2013-09-02 21:08:00,84.7,53.9,29.88,South,180,0.9,16.3,35,0.00,,,0.00,WUHU21623XXSP,2013-09-03 04:08:00,
2013-09-02 21:13:00,84.4,53.6,29.89,SSE,157,5.4,12.5,35,0.00,,,0.00,WUHU21623XXSP,2013-09-03 04:13:00,
2013-09-02 21:18:00,84.4,53.6,29.89,South,180,3.4,12.5,35,0.00,,,0.00,WUHU21623XXSP,2013-09-03 04:18:00,
2013-09-02 21:23:00,84.4,53.6,29.89,SSE,157,0.0,3.4,35,0.00,,,0.00,WUHU21623XXSP,2013-09-03 04:23:00,
2013-09-02 21:28:00,84.2,53.4,29.89,SSE,157,3.8,15.0,35,0.00,,,0.00,WUHU21623XXSP,2013-09-03 04:28:00,
2013-09-02 21:33:00,84.2,53.4,29.89,South,180,16.8,16.8,35,0.00,,,0.00,WUHU21623XXSP,2013-09-03 04:33:00,
2013-09-02 21:38:00,84.4,53.6,29.90,South,180,6.9,16.8,35,0.00,,,0.00,WUHU21623XXSP,2013-09-03 04:38:00,
2013-09-02 21:43:00,84.0,53.3,29.90,SSE,157,16.1,16.6,35,0.00,,,0.00,WUHU21623XXSP,2013-09-03 04:43:00,
2013-09-02 21:48:00,83.8,53.9,29.90,SSE,157,3.4,16.1,36,0.00,,,0.00,WUHU21623XXSP,2013-09-03 04:48:00,
2013-09-02 21:53:00,83.7,53.7,29.89,SSE,157,15.9,15.9,36,0.00,,,0.00,WUHU21623XXSP,2013-09-03 04:53:00,
2013-09-02 21:58:00,83.5,53.6,29.89,SSE,157,1.1,16.1,36,0.00,,,0.00,WUHU21623XXSP,2013-09-03 04:58:00,
2013-09-02 22:03:00,83.3,53.4,29.89,SSE,157,0.0,16.1,36,0.00,,,0.00,WUHU21623XXSP,2013-09-03 05:03:00,
2013-09-02 22:08:00,83.3,53.4,29.89,SSE,157,3.8,13.6,36,0.00,,,0.00,WUHU21623XXSP,2013-09-03 05:08:00,
2013-09-02 22:13:00,83.5,53.6,29.89,SSE,157,3.8,13.6,36,0.00,,,0.00,WUHU21623XXSP,2013-09-03 05:13:00,
2013-09-02 22:18:00,83.5,53.6,29.89,South,180,4.3,5.6,36,0.00,,,0.00,WUHU21623XXSP,2013-09-03 05:18:00,
2013-09-02 22:23:00,83.5,53.6,29.89,South,180,6.9,7.6,36,0.00,,,0.00,WUHU21623XXSP,2013-09-03 05:23:00,
2013-09-02 22:28:00,83.3,53.4,29.89,South,180,4.9,15.0,36,0.00,,,0.00,WUHU21623XXSP,2013-09-03 05:28:00,
2013-09-02 22:33:00,83.1,53.2,29.89,South,180,21.9,21.9,36,0.00,,,0.00,WUHU21623XXSP,2013-09-03 05:33:00,
2013-09-02 22:38:00,83.1,53.2,29.89,South,180,5.8,21.9,36,0.00,,,0.00,WUHU21623XXSP,2013-09-03 05:38:00,
2013-09-02 22:43:00,82.9,53.9,29.89,South,180,17.7,17.7,37,0.00,,,0.00,WUHU21623XXSP,2013-09-03 05:43:00,
2013-09-02 22:48:00,82.9,53.9,29.89,SSE,157,3.8,17.7,37,0.00,,,0.00,WUHU21623XXSP,2013-09-03 05:48:00,
2013-09-02 22:53:00,82.8,53.7,29.90,South,180,5.6,10.1,37,0.00,,,0.00,WUHU21623XXSP,2013-09-03 05:53:00,
2013-09-02 22:58:00,82.8,53.7,29.90,SSE,157,2.9,5.6,37,0.00,,,0.00,WUHU21623XXSP,2013-09-03 05:58:00,
2013-09-02 23:03:00,82.8,53.7,29.90,South,180,5.4,5.4,37,0.00,,,0.00,WUHU21623XXSP,2013-09-03 06:03:00,
2013-09-02 23:09:00,82.6,52.8,29.90,SSW,202,2.7,11.9,36,0.00,,,0.00,WUHU21623XXSP,2013-09-03 06:09:00,
2013-09-02 23:14:00,82.4,51.8,29.90,South,180,10.1,11.9,35,0.00,,,0.00,WUHU21623XXSP,2013-09-03 06:14:00,
2013-09-02 23:19:00,82.2,51.6,29.90,South,180,7.8,10.1,35,0.00,,,0.00,WUHU21623XXSP,2013-09-03 06:19:00,
2013-09-02 23:24:00,82.2,51.6,29.90,South,180,8.1,8.1,35,0.00,,,0.00,WUHU21623XXSP,2013-09-03 06:24:00,
2013-09-02 23:29:00,82.2,51.6,29.90,South,180,11.2,11.2,35,0.00,,,0.00,WUHU21623XXSP,2013-09-03 06:29:00,
2013-09-02 23:34:00,82.0,51.5,29.90,SSE,157,4.0,11.2,35,0.00,,,0.00,WUHU21623XXSP,2013-09-03 06:34:00,
2013-09-02 23:39:00,81.9,51.3,29.90,South,180,8.5,11.9,35,0.00,,,0.00,WUHU21623XXSP,2013-09-03 06:39:00,
2013-09-02 23:44:00,81.7,51.2,29.90,South,180,2.9,11.9,35,0.00,,,0.00,WUHU21623XXSP,2013-09-03 06:44:00,
2013-09-02 23:49:00,81.5,51.0,29.90,South,180,2.0,3.1,35,0.00,,,0.00,WUHU21623XXSP,2013-09-03 06:49:00,
2013-09-02 23:54:00,81.3,50.9,29.90,SSE,157,15.2,15.2,35,0.00,,,0.00,WUHU21623XXSP,2013-09-03 06:54:00,
2013-09-02 23:59:00,81.1,50.7,29.89,South,180,13.9,15.2,35,0.00,,,0.00,WUHU21623XXSP,2013-09-03 06:59:00,